Location: Unspecified
(50.7693°N, 0.0000°E)
Time: 22:33:18
(UTC+00:00)

SR - Pass Details

Date: 27 June 2019
Orbit: 580 x 876 km, 66.7° (Epoch: 17 July)

Event Time Altitude Azimuth Distance (km) Brightness Sun altitude
Rises 12:42:13 0° 305° (NW) 3,073 ? 61.5°
Reaches altitude 10° 12:46:10 10° 273° (W) 2,228 ? 61.3°
Maximum altitude 12:47:46 11° 255° (WSW) 2,156 ? 61.2°
Drops below altitude 10° 12:49:25 10° 236° (SW) 2,286 ? 61.1°
Sets 12:53:40 0° 205° (SSW) 3,285 ? 60.8°
